This is the latest recevied weather packets stored in our database for station/object K1AWR. If no packets are shown the sender has not sent any weather packets the latest 10 day(s).
| Time | Temp. | Humidity | Pressure | Rain* | Wind** | Luminosity | Snow |
|---|---|---|---|---|---|---|---|
| 1778193469 | 14.44° C | 38% | 1008.4 hPa | 0 mm | - | 27 W/m² | - |
| 1778193166 | 15° C | 38% | 1008.4 hPa | 0 mm | - | 29 W/m² | - |
| 1778192863 | 15° C | 40% | 1008.4 hPa | 0 mm | - | 32 W/m² | - |
| 1778192559 | 15° C | 36% | 1008.4 hPa | 0 mm | - | 36 W/m² | - |
| 1778192256 | 15° C | 37% | 1008.4 hPa | 0 mm | - | 40 W/m² | - |
| 1778191952 | 15° C | 35% | 1008.5 hPa | 0 mm | - | 46 W/m² | - |
| 1778191649 | 15° C | 37% | 1008.4 hPa | 0 mm | - | 39 W/m² | - |
| 1778191348 | 15.56° C | 34% | 1008.4 hPa | 0 mm | - | 52 W/m² | - |
| 1778191043 | 15.56° C | 34% | 1008.2 hPa | 0 mm | - | 46 W/m² | - |
| 1778190741 | 15.56° C | 34% | 1008.1 hPa | 0 mm | - | 53 W/m² | - |
| 1778190438 | 15.56° C | 34% | 1008.3 hPa | 0 mm | - | 48 W/m² | - |
| 1778190135 | 15.56° C | 36% | 1008.2 hPa | 0 mm | - | 59 W/m² | - |
| 1778189830 | 16.11° C | 35% | 1008.2 hPa | 0 mm | - | 65 W/m² | - |
| 1778189528 | 16.11° C | 34% | 1008.2 hPa | 0 mm | - | 68 W/m² | - |
| 1778189223 | 16.11° C | 34% | 1008.1 hPa | 0 mm | - | 285 W/m² | - |
| 1778188921 | 16.67° C | 33% | 1008.1 hPa | 0 mm | - | 294 W/m² | - |
| 1778188617 | 16.11° C | 33% | 1008.1 hPa | 0 mm | - | 324 W/m² | - |
| 1778188313 | 17.22° C | 34% | 1008 hPa | 0 mm | - | 335 W/m² | - |
| 1778188010 | 16.67° C | 35% | 1007.9 hPa | 0 mm | - | 347 W/m² | - |
| 1778187707 | 16.11° C | 34% | 1007.8 hPa | 0 mm | - | 377 W/m² | - |
| 1778187403 | 17.22° C | 34% | 1007.9 hPa | 0 mm | - | 238 W/m² | - |
| 1778187100 | 16.67° C | 33% | 1007.9 hPa | 0 mm | - | 390 W/m² | - |
| 1778186796 | 16.67° C | 33% | 1007.9 hPa | 0 mm | - | 353 W/m² | - |
| 1778186494 | 16.67° C | 34% | 1008 hPa | 0 mm | - | 81 W/m² | - |
| 1778186192 | 16.67° C | 32% | 1008 hPa | 0 mm | - | 440 W/m² | - |
* Rain latest hour (hover to see other rain measurements)
** Current wind speed in m/s (hover to see current wind gust speed)